Simultaneous Nadir Overpasses (SNOs) Predictions

Prediction of SNOs between GOES-15 and NPP Satellite Orbit:

Table of predicted SNOs for the next 14.0 days since TLE Epoch: 10/5/2024
Index Date Time (GOES-15) GOES-15 Lat,Lon NPP Lat,Lon Distance(km) Time Diff (sec)
1 10/05/2024 21:04:44 0.28, 61.29 -0.49, 64.60 378.16 80
2 10/07/2024 09:26:35 -0.25, 61.27 -0.72, 59.32 222.95 80
3 10/08/2024 09:10:27 -0.26, 61.27 0.31, 63.86 294.94 80
4 10/09/2024 21:32:11 0.24, 61.29 0.87, 58.61 306.68 80
5 10/10/2024 21:10:43 0.25, 61.31 -0.17, 63.15 209.98 80
6 10/12/2024 09:32:35 -0.22, 61.32 -0.99, 57.86 393.74 80
7 10/13/2024 09:16:26 -0.23, 61.33 0.01, 62.41 123.77 80
8 10/14/2024 21:38:09 0.20, 61.34 1.12, 57.15 476.38 80
9 10/15/2024 21:16:41 0.21, 61.35 0.11, 61.70 40.38 80
10 10/18/2024 09:19:42 -0.20, 61.39 -0.31, 60.98 47.66 80
